Location: Malanoce
(44.2500°N, 7.4667°E)
Time: 22:41:05
(UTC+00:00)

SJ-12 - Pass Details

Date: 17 November 2025
Orbit: 517 x 528 km, 97.8° (Epoch: 09 December)

Event Time Altitude Azimuth Distance (km) Brightness Sun altitude
Rises 17:15:20 0° 172° (S) 2,642 7.4 -13.3°
Reaches altitude 10° 17:17:26 10° 175° (S) 1,756 6.5 -13.6°
Maximum altitude 17:21:12 66° 258° (WSW) 573 4.1 -14.3°
Drops below altitude 10° 17:24:59 10° 342° (NNW) 1,764 6.5 -14.9°
Sets 17:27:06 0° 345° (NNW) 2,655 7.4 -15.3°
